IZ2XSB-13 Weather Reports


time (UTC)temp
C
wind
direction
speed
KPH
gust
KPH
rain 1hr
cm
rain 24hr
cm
rain mn
cm
humidity
%
barometer
mb
20260505071329 12 33 1.6 3.2 0.00 0.00 0.00 78 1014.6
20260505070848 12 97 1.6 4.8 0.00 0.00 0.00 80 1014.5
20260505070327 12 97 3.2 4.8 0.00 0.00 0.00 82 1014.5
20260505065825 12 121 3.2 6.4 0.00 0.00 0.00 81 1014.3
20260505065325 12 188 3.2 8.0 0.00 0.00 0.00 83 1014.3
20260505064823 12 173 3.2 9.7 0.00 0.00 0.00 80 1014.2
20260505064323 12 259 6.4 9.7 0.00 0.00 0.00 81 1014.2
20260505063819 12 237 6.4 8.0 0.00 0.00 0.00 79 1014.3
20260505063319 13 234 3.2 6.4 0.00 0.00 0.00 75 1014.2
20260505062817 13 280 3.2 6.4 0.00 0.00 0.00 73 1014.4
20260505062334 13 325 1.6 3.2 0.00 0.00 0.00 69 1014.2
20260505061833 13 77 1.6 3.2 0.00 0.00 0.00 68 1014.3
20260505061352 13 90 1.6 3.2 0.00 0.00 0.00 71 1014.3
20260505060830 13 89 1.6 3.2 0.00 0.00 0.00 69 1014.2
20260505060330 13 348 1.6 4.8 0.00 0.00 0.00 68 1014.1
20260505055829 13 136 1.6 4.8 0.00 0.00 0.00 68 1014.2
20260505055329 13 313 0.0 3.2 0.00 0.00 0.00 66 1014.1
20260505054829 13 313 1.6 3.2 0.00 0.00 0.00 66 1014.0
20260505054329 13 92 3.2 3.2 0.00 0.00 0.00 67 1014.1
20260505053827 13 292 0.0 3.2 0.00 0.00 0.00 69 1013.8
20260505053326 13 329 0.0 3.2 0.00 0.00 0.00 68 1013.9
20260505052825 13 269 1.6 4.8 0.00 0.00 0.00 67 1013.9
20260505052326 13 111 3.2 8.0 0.00 0.00 0.00 67 1013.7
20260505051844 13 145 3.2 12.9 0.00 0.00 0.00 68 1013.9
20260505051324 13 162 3.2 12.9 0.00 0.00 0.00 68 1013.9
20260505050845 13 204 3.2 14.5 0.00 0.00 0.00 68 1013.9
20260505050323 13 296 4.8 19.3 0.00 0.00 0.00 67 1013.6
20260505041347 13 195 3.2 8.0 0.00 0.00 0.00 65 1014.0
20260505040845 13 197 4.8 9.7 0.00 0.00 0.00 64 1014.1
20260505040322 13 208 4.8 9.7 0.00 0.00 0.00 62 1014.1
20260505035838 13 278 1.6 4.8 0.00 0.00 0.00 61 1014.1
20260505035358 13 332 3.2 4.8 0.00 0.00 0.00 60 1014.0
20260505034855 13 327 3.2 4.8 0.00 0.00 0.00 60 1014.0
20260505034314 13 186 0.0 4.8 0.00 0.00 0.00 60 1014.0
20260505033833 13 184 3.2 4.8 0.00 0.00 0.00 59 1014.1
20260505033330 13 16 1.6 4.8 0.00 0.00 0.00 59 1014.1
20260505032830 13 315 3.2 9.7 0.00 0.00 0.00 59 1014.2
20260505032330 13 284 4.8 9.7 0.00 0.00 0.00 60 1014.1
20260505031850 13 241 4.8 9.7 0.00 0.00 0.00 60 1014.3
20260505031348 13 232 4.8 9.7 0.00 0.00 0.00 60 1014.1
20260505030826 13 248 4.8 6.4 0.00 0.00 0.00 60 1014.3
20260505030325 13 217 4.8 6.4 0.00 0.00 0.00 59 1014.3
20260505025823 13 291 0.0 9.7 0.00 0.00 0.00 59 1014.5
20260505025324 13 291 4.8 9.7 0.00 0.00 0.00 60 1014.5
20260505024841 13 286 1.6 6.4 0.00 0.00 0.00 60 1014.5
20260505024321 13 275 4.8 6.4 0.00 0.00 0.00 60 1014.6
20260505023839 13 283 1.6 6.4 0.00 0.00 0.00 60 1014.7
20260505023316 13 246 4.8 6.4 0.00 0.00 0.00 60 1014.7
20260505022816 13 281 4.8 6.4 0.00 0.00 0.00 60 1014.7
20260505022316 13 236 3.2 8.0 0.00 0.00 0.00 60 1014.7
20260505021817 13 148 3.2 8.0 0.00 0.00 0.00 58 1014.8
20260505021317 13 234 0.0 8.0 0.00 0.00 0.00 58 1014.8
20260505020817 13 229 3.2 8.0 0.00 0.00 0.00 58 1014.8
20260505020315 13 304 1.6 4.8 0.00 0.00 0.00 59 1014.8
20260505015815 13 306 1.6 11.3 0.00 0.00 0.00 58 1014.9
20260505015334 13 348 4.8 11.3 0.00 0.00 0.00 58 1014.9
20260505014814 13 290 3.2 6.4 0.00 0.00 0.00 58 1014.9
20260505014334 13 238 3.2 9.7 0.00 0.00 0.00 58 1014.9
20260505013834 13 335 3.2 8.0 0.00 0.00 0.00 58 1015.0
20260505013333 13 254 3.2 8.0 0.00 0.00 0.00 58 1015.1
20260505012833 13 311 1.6 6.4 0.00 0.00 0.00 59 1015.1
20260505012332 13 198 1.6 3.2 0.00 0.00 0.00 59 1015.2
20260505011852 13 259 1.6 4.8 0.00 0.00 0.00 59 1015.3
20260505011330 13 297 3.2 4.8 0.00 0.00 0.00 59 1015.2
20260505010830 13 275 1.6 6.4 0.00 0.00 0.00 59 1015.5
20260505010328 13 286 3.2 6.4 0.00 0.00 0.00 60 1015.6
20260505005827 13 281 3.2 4.8 0.00 0.00 0.00 60 1015.6
20260505005326 13 298 3.2 4.8 0.00 0.00 0.00 59 1015.8
20260505004840 13 291 3.2 6.4 0.00 0.00 0.00 58 1015.9
20260505004319 13 314 3.2 6.4 0.00 0.00 0.00 58 1015.9
20260505003820 13 276 3.2 6.4 0.00 0.00 0.00 58 1016.1
20260505003340 13 315 1.6 8.0 0.00 0.00 0.00 58 1016.1
20260505002818 13 306 4.8 8.0 0.00 0.00 0.00 58 1016.1
20260505002318 13 295 4.8 9.7 0.00 0.00 0.00 59 1016.2
20260505001815 13 280 8.0 9.7 0.00 0.00 0.00 59 1016.3
20260505001315 13 269 6.4 9.7 0.00 0.00 0.00 56 1016.4
20260505000815 13 291 4.8 8.0 0.00 0.00 0.00 58 1016.5
20260505000314 13 291 3.2 4.8 0.00 0.00 0.00 57 1016.6
20260504235813 13 284 1.6 3.2 0.00 0.00 0.00 57 1016.6
20260504235333 13 42 1.6 4.8 0.00 0.00 0.00 57 1016.5
20260504234813 13 324 3.2 4.8 0.00 0.00 0.00 57 1016.7
20260504234332 13 333 0.0 3.2 0.00 0.00 0.00 57 1016.7
20260504233832 13 333 1.6 4.8 0.00 0.00 0.00 57 1016.7
20260504233329 13 282 3.2 4.8 0.00 0.00 0.00 56 1016.8
20260504232826 13 300 3.2 6.4 0.00 0.00 0.00 56 1016.8
20260504232326 13 295 3.2 6.4 0.00 0.00 0.00 55 1016.8
20260504231827 13 296 4.8 6.4 0.00 0.00 0.00 56 1017.0
20260504231326 13 313 3.2 4.8 0.00 0.00 0.00 55 1016.9
20260504230823 13 284 3.2 6.4 0.00 0.00 0.00 55 1016.9
20260504230344 13 302 3.2 6.4 0.00 0.00 0.00 54 1017.0
20260504225823 13 300 4.8 6.4 0.00 0.00 0.00 55 1017.0
20260504225325 13 279 3.2 6.4 0.00 0.00 0.00 54 1017.1
20260504224823 13 296 4.8 6.4 0.00 0.00 0.00 54 1017.2
20260504224323 13 306 3.2 6.4 0.00 0.00 0.00 54 1017.1
20260504223822 13 323 4.8 6.4 0.00 0.00 0.00 54 1017.2
20260504223321 13 292 3.2 6.4 0.00 0.00 0.00 54 1017.3
20260504222841 13 285 1.6 6.4 0.00 0.00 0.00 54 1017.4
20260504222319 13 294 3.2 6.4 0.00 0.00 0.00 53 1017.3
20260504221819 13 322 3.2 4.8 0.00 0.00 0.00 53 1017.4
20260504221320 13 288 0.0 4.8 0.00 0.00 0.00 53 1017.5
20260504220819 13 284 3.2 4.8 0.00 0.00 0.00 53 1017.4
20260504220336 13 309 1.6 4.8 0.00 0.00 0.00 53 1017.4
20260504215829 14 304 3.2 4.8 0.00 0.00 0.00 54 1017.3
20260504215328 14 5 0.0 3.2 0.00 0.00 0.00 53 1017.5
20260504214826 14 348 0.0 3.2 0.00 0.00 0.00 52 1017.4
20260504214348 14 355 0.0 3.2 0.00 0.00 0.00 51 1017.4
20260504213825 14 319 1.6 3.2 0.00 0.00 0.00 52 1017.5
20260504213324 14 325 1.6 3.2 0.00 0.00 0.00 52 1017.5
20260504212824 14 325 0.0 4.8 0.00 0.00 0.00 51 1017.6
20260504212324 14 325 0.0 4.8 0.00 0.00 0.00 53 1017.6
20260504211822 15 320 3.2 4.8 0.00 0.00 0.00 51 1017.6
20260504211321 15 296 3.2 4.8 0.00 0.00 0.00 51 1017.6
20260504210821 15 294 3.2 4.8 0.00 0.00 0.00 50 1017.8
20260504210339 15 274 3.2 6.4 0.00 0.00 0.00 50 1017.9
20260504205818 15 294 3.2 6.4 0.00 0.00 0.00 51 1017.9
20260504205316 15 317 1.6 4.8 0.00 0.00 0.00 50 1017.9
20260504204815 15 306 1.6 4.8 0.00 0.00 0.00 50 1017.9
20260504204314 15 310 1.6 3.2 0.00 0.00 0.00 49 1017.9
20260504203830 15 304 1.6 4.8 0.00 0.00 0.00 50 1017.9
20260504203350 15 321 0.0 4.8 0.00 0.00 0.00 48 1018.0
20260504202828 15 327 3.2 6.4 0.00 0.00 0.00 47 1018.0
20260504202327 15 296 3.2 6.4 0.00 0.00 0.00 48 1017.9
20260504201827 15 274 3.2 4.8 0.00 0.00 0.00 48 1017.8
20260504201347 15 265 3.2 3.2 0.00 0.00 0.00 48 1017.8
20260504200826 15 317 1.6 3.2 0.00 0.00 0.00 48 1017.7
20260504200347 15 329 1.6 4.8 0.00 0.00 0.00 48 1017.7
20260504195826 15 321 3.2 4.8 0.00 0.00 0.00 47 1017.7
20260504195326 15 304 1.6 3.2 0.00 0.00 0.00 47 1017.7
20260504194825 15 316 1.6 3.2 0.00 0.00 0.00 47 1017.7
20260504194345 15 310 1.6 4.8 0.00 0.00 0.00 47 1017.6
20260504193824 15 338 3.2 4.8 0.00 0.00 0.00 47 1017.6
20260504193324 15 294 3.2 4.8 0.00 0.00 0.00 48 1017.6
20260504192823 15 293 3.2 4.8 0.00 0.00 0.00 47 1017.5
20260504192323 15 316 3.2 4.8 0.00 0.00 0.00 47 1017.6
20260504191821 15 309 1.6 4.8 0.00 0.00 0.00 47 1017.5
20260504191322 15 313 1.6 4.8 0.00 0.00 0.00 47 1017.5
20260504190841 16 289 0.0 4.8 0.00 0.00 0.00 48 1017.5
20260504190320 16 292 3.2 6.4 0.00 0.00 0.00 48 1017.3
20260504185820 16 291 3.2 6.4 0.00 0.00 0.00 47 1017.4
20260504185320 16 275 4.8 6.4 0.00 0.00 0.00 46 1017.4
20260504184817 16 294 6.4 6.4 0.00 0.00 0.00 48 1017.3
20260504184317 16 292 6.4 6.4 0.00 0.00 0.00 49 1017.3
20260504183815 16 293 4.8 8.0 0.00 0.00 0.00 50 1017.4
20260504183322 16 301 6.4 8.0 0.00 0.00 0.00 49 1017.3
20260504182821 16 286 4.8 8.0 0.00 0.00 0.00 50 1017.3
20260504182322 16 287 6.4 8.0 0.00 0.00 0.00 49 1017.4
20260504181822 16 292 4.8 9.7 0.00 0.00 0.00 48 1017.3
20260504181322 16 275 3.2 6.4 0.00 0.00 0.00 48 1017.3
20260504180822 16 327 1.6 4.8 0.00 0.00 0.00 48 1017.5
20260504180322 16 295 1.6 3.2 0.00 0.00 0.00 48 1017.5
20260504175822 17 284 1.6 3.2 0.00 0.00 0.00 49 1017.4
20260504175342 17 284 0.0 3.2 0.00 0.00 0.00 49 1017.4
20260504174821 17 284 1.6 4.8 0.00 0.00 0.00 49 1017.3
20260504174321 17 281 1.6 4.8 0.00 0.00 0.00 48 1017.4
20260504173819 17 277 3.2 4.8 0.00 0.00 0.00 49 1017.5
20260504173319 17 331 1.6 4.8 0.00 0.00 0.00 48 1017.5
20260504172838 17 328 3.2 4.8 0.00 0.00 0.00 47 1017.4
20260504172317 17 5 3.2 6.4 0.00 0.00 0.00 47 1017.5
20260504171816 17 29 3.2 6.4 0.00 0.00 0.00 47 1017.5
20260504171315 17 61 3.2 6.4 0.00 0.00 0.00 47 1017.5
20260504170843 17 51 4.8 6.4 0.00 0.00 0.00 46 1017.3
20260504170320 17 53 3.2 6.4 0.00 0.00 0.00 46 1017.3
20260504160326 18 169 0.0 12.9 0.00 0.00 0.00 43 1017.6
20260504150819 17 254 14.5 22.5 0.00 0.00 0.00 47 1017.8
20260504150320 17 266 14.5 25.7 0.00 0.00 0.00 46 1017.7
20260504141318 18 117 1.6 11.3 0.00 0.00 0.00 47 1017.9
20260504140838 18 115 4.8 12.9 0.00 0.00 0.00 49 1017.7
20260504140314 18 111 6.4 12.9 0.00 0.00 0.00 47 1017.7
20260504130317 19 32 3.2 6.4 0.00 0.00 0.00 46 1018.3
20260504110358 18 92 9.7 14.5 0.00 0.00 0.00 45 1019.0
20260504100330 18 83 8.0 14.5 0.00 0.00 0.00 50 1019.2
20260504081830 16 59 3.2 8.0 0.00 0.00 0.00 55 1019.3
20260504081331 16 5 4.8 8.0 0.00 0.00 0.00 53 1019.3
20260504080831 16 87 3.2 9.7 0.00 0.00 0.00 56 1019.3
20260504080330 16 71 4.8 6.4 0.00 0.00 0.00 54 1019.2